Location: Newark
(44.1667°N, 8.2500°E)
Time: 04:31:27
(UTC+00:00)

S-56A Canister/Altair - Pass Details

Date: 10 December 2019
Orbit: 634 x 2498 km, 38.9° (Epoch: 28 January)

Event Time Altitude Azimuth Distance (km) Brightness Sun altitude
Rises 16:11:25 0° 284° (WNW) 6,052 12.9 -4.4°
Reaches altitude 10° 16:16:25 10° 275° (W) 4,864 12.7 -5.2°
Maximum altitude 16:26:30 27° 226° (SW) 3,153 11.6 -6.9°
Drops below altitude 10° 16:34:21 10° 173° (S) 3,699 11.2 -8.1°
Sets 16:37:35 0° 161° (SSE) 4,399 11.5 -8.7°
